Skip Page Navigation
NASA JPL Caltech
NASA Logo - Jet Propulsion Laboratory + View the NASA Portal
+ Center for Near-Earth Object Studies
JPL Home Earth Solar System Stars & Galaxies Technology
JPL Solar System Dynamics
BODIES ORBITS EPHEMERIDES TOOLS PHYSICAL DATA DISCOVERY FAQ SITE MAP
JPL Small-Body Database Browser
Search: [ help ]  
30382 (2000 JB81)
Classification: Main-belt Asteroid          SPK-ID: 2030382
Ephemeris | Orbit Diagram | Orbital Elements | Mission Design | Physical Parameters | Discovery Circumstances ]

[ show orbit diagram ]
Orbital Elements at Epoch 2459396.5 (2021-Jul-01.0) TDB
Reference: JPL 34 (heliocentric ecliptic J2000)
 Element Value Uncertainty (1-sigma)   Units 
e .1859783490983073 2.783e-08  
a 2.561656929037206 1.0422e-08 au
q 2.085244202418627 7.0962e-08 au
i 8.311755259954097 3.1555e-06 deg
node 95.16118367113144 2.9154e-05 deg
peri 206.2126424598843 3.1557e-05 deg
M 16.76515016237179 1.3954e-05 deg
tp 2459326.759537506468
(2021-Apr-22.25953751)
5.7925e-05 TDB
period 1497.544981972275
4.10
9.1388e-06
2.502e-08
d
yr
n .2403934468304773 1.467e-09 deg/d
Q 3.038069655655786 1.236e-08 au
  Orbit Determination Parameters
   # obs. used (total)      1925  
   data-arc span      8639 days (23.65 yr)  
   first obs. used      1997-10-30  
   last obs. used      2021-06-25  
   planetary ephem.      DE441  
   SB-pert. ephem.      SB441-N16  
   condition code      0  
   norm. resid. RMS      .51273  
   source      ORB  
   producer      Otto Matic  
   solution date      2021-Jul-08 06:43:15  

Additional Information
 Earth MOID = 1.07269 au 
 Jupiter MOID = 2.18733 au 
 T_jup = 3.396 
[ show covariance matrix ]

Ephemeris | Orbit Diagram | Orbital Elements | Mission Design | Physical Parameters | Discovery Circumstances ]

Physical Parameter Table
Parameter Symbol Value Units Sigma Reference Notes
absolute magnitude H 14.43   n/a E2021B10  
diameter diameter 3.260 km 0.792 urn:nasa:pds:neowise_diameters_albedos::2.0[mainbelt] (http://adsabs.harvard.edu/abs/2011ApJ...741...68M)  
rotation period rot_per 4.253 h n/a LCDB (Rev. 2020-October); Warner et al., 2009 Result based on less than full coverage, so that the period may be wrong by 30 percent or so.
Published Reference List:
[Waszczak, A.; Chang, C.-K.; Ofeck, E.O.; Laher, F.; et al. (2015) Astron. J. 150, A75.]
geometric albedo albedo 0.381   0.246 urn:nasa:pds:neowise_diameters_albedos::2.0[mainbelt] (http://adsabs.harvard.edu/abs/2011ApJ...741...68M)  

30382 (2000 JB81)          Discovered 2000-May-15 by Crni Vrh at Crni Vrh
Reference: 20011002/Numbers.arcLast Updated: 2004-04-19

Alternate Designations
 2000 JB81 = 1999 CG35 
Ephemeris | Orbit Diagram | Orbital Elements | Mission Design | Physical Parameters | Discovery Circumstances ]
ABOUT SSD CREDITS/AWARDS PRIVACY/COPYRIGHT GLOSSARY LINKS
FirstGov 2021-Jul-29 23:10 UT
(server date/time)  
NASA Home Page
Site Manager:   Ryan S. Park
Webmaster  Alan B. Chamberlin